[[{"header":{"parameterUnit":"m.s-1","parameterCategory":2,"la1":30.2991,"la2":30.254,"lo1":-89.0895,"lo2":-89.0444,"dy":0.0017,"dx":0.0017,"nx":28,"ny":28,"refTime":"2025-07-17T09:00:00:Z","depth":"0","parameterNumber":2,"parameterNumberName":"U-component_of_CURRENTS"},"data":[0,0,0,0,0,0,0,0,0,0,0,0,0,0,0,0,0,0,0,0,0,0,0,0,0,0,0,0,0,0,0,0,0,0,0,0,0,0,0,0,0,0,0,0,0,0,0,0,0,0,0,0,0,0,0,0,0,0,0.2507,0.2507,0,0.2503,0.2502,0.2502,0.2474,0.2474,0.2473,0.2473,0.2559,0.2561,0.2564,0,0,0,0,0,0,0,0,0,0,0,0,0,0.2373,0.2376,0.2507,0.2507,0.2507,0.2503,0.2502,0.2502,0.2474,0.2474,0.2473,0.2473,0.2558,0.2561,0.2564,0,0,0,0,0,0,0,0,0,0,0,0,0,0.2403,0.2377,0.2507,0.2495,0.2494,0.2503,0.2502,0.2502,0.2474,0.2474,0.2473,0.2472,0.2557,0.2561,0.2565,0.2601,0,0,0.2577,0.2578,0,0,0,0,0,0,0,0,0.2402,0.2408,0.2497,0.2496,0.2495,0.2491,0.2486,0.2541,0.2474,0.2479,0.2473,0.2472,0.2547,0.2552,0.2546,0.2605,0.2609,0.2577,0.2579,0.2581,0.2582,0,0,0,0,0,0,0,0.24,0.2407,0.2502,0.2497,0.2496,0.245,0.2454,0.2495,0.2516,0.2478,0.2477,0.2481,0.2547,0.2543,0.2549,0.261,0.2577,0.2581,0.2583,0.2585,0.2661,0.2661,0,0,0,0,0,0,0.2414,0.2407,0.2502,0.2502,0.2449,0.2453,0.2458,0.249,0.2513,0.2516,0.2482,0.248,0.2536,0.2544,0.2552,0.2611,0.2581,0.2585,0.2587,0.2661,0.2661,0.2661,0,0,0,0,0,0,0.2412,0.2424,0.2503,0.2454,0.2461,0.2458,0.2493,0.2491,0.2484,0.2515,0.2519,0.2478,0.2536,0.2546,0.2588,0.2614,0.2587,0.259,0.2662,0.2661,0.2661,0.2722,0,0,0,0,0,0,0.2408,0.2424,0.2438,0.2457,0.2465,0.2512,0.2494,0.2491,0.249,0.2487,0.2514,0.2521,0.2536,0.2582,0.2592,0.2619,0.2593,0.2662,0.2662,0.2661,0.2721,0.2724,0.2726,0,0,0,0,0,0.2404,0.2441,0.244,0.245,0.2491,0.2513,0.2512,0.2503,0.249,0.2493,0.2509,0.252,0.2583,0.2586,0.2598,0.2626,0.2663,0.2662,0.2661,0.2719,0.2723,0.2726,0,0,0,0,0,0,0.2382,0.2443,0.2441,0.2491,0.2499,0.2509,0.2512,0.2505,0.2516,0.2519,0.2535,0.2544,0.2585,0.2589,0.2591,0.2637,0.2618,0.2619,0.2658,0.2662,0.2665,0.2673,0.2597,0,0,0,0,0,0.2387,0.2442,0.2464,0.2503,0.2507,0.2506,0.2508,0.251,0.2527,0.2529,0.2548,0.2564,0.259,0.2613,0.2633,0.2677,0.2717,0.2691,0.2694,0.2697,0.2707,0.2768,0.2779,0.2658,0.2658,0.2658,0,0,0.2392,0.243,0.2459,0.2502,0.2505,0.2518,0.2506,0.2525,0.2535,0.2543,0.2565,0.2584,0.2601,0.2642,0.2659,0.2653,0.2761,0.2696,0.2699,0.2708,0.2769,0.2781,0.2792,0.2657,0.2657,0.2657,0,0,0.2422,0.2458,0.2499,0.2515,0.2537,0.2534,0.254,0.2554,0.2555,0.2583,0.2588,0.2622,0.2652,0.2679,0.2693,0.2723,0.2772,0.2719,0.2757,0.2817,0.2829,0.2839,0.2953,0.2974,0.2725,0.2725,0.2725,0,0.2413,0.2478,0.2506,0.2538,0.2548,0.2541,0.2558,0.2565,0.259,0.2608,0.2594,0.2652,0.267,0.2732,0.2736,0.2737,0.2793,0.2752,0.2826,0.2837,0.2847,0.2961,0.2982,0.2728,0.2727,0.2727,0.2727,0,0.2472,0.2509,0.2533,0.2574,0.2581,0.2607,0.2614,0.2624,0.2619,0.2635,0.2687,0.2713,0.2747,0.2756,0.2761,0.2837,0.2867,0.2826,0.2829,0.2864,0.2981,0.3002,0.2732,0.2731,0.273,0.2729,0,0,0.2486,0.2559,0.2566,0.2573,0.2606,0.2612,0.2636,0.2657,0.2682,0.2706,0.2754,0.2791,0.2811,0.2826,0.2845,0.29,0.3033,0.2898,0.29,0.3035,0.3221,0.3247,0.3274,0.3011,0.3014,0.3016,0.3294,0,0.2509,0.2565,0.2603,0.2626,0.2635,0.265,0.2669,0.2694,0.2716,0.2766,0.2807,0.2859,0.2836,0.2871,0.2921,0.3002,0.3084,0.2965,0.3146,0.3153,0.319,0.3296,0.3201,0.3439,0.3315,0.3319,0.3321,0,0.2546,0.2573,0.2604,0.2637,0.2645,0.2658,0.2684,0.271,0.2784,0.2816,0.2879,0.2917,0.302,0.2975,0.3153,0.3082,0.3158,0.3217,0.3228,0.3242,0.3217,0.3371,0.3483,0.3317,0.3355,0.3352,0.335,0,0.2506,0.2571,0.2586,0.2602,0.2639,0.2652,0.2669,0.2724,0.2753,0.2862,0.2909,0.3021,0.3088,0.3187,0.3299,0.3242,0.3506,0.3435,0.3544,0.3549,0.3498,0.3493,0.3484,0.3565,0.3564,0.3563,0.3562,0,0.2508,0.2529,0.2571,0.257,0.2592,0.2629,0.2664,0.2706,0.2785,0.2846,0.2932,0.3014,0.3138,0.3284,0.337,0.3555,0.3567,0.3598,0.3626,0.3519,0.3513,0.3385,0.3283,0.3574,0.3571,0.3569,0.3568,0,0.2471,0.2508,0.2519,0.2552,0.2566,0.2578,0.2639,0.2678,0.2757,0.2845,0.2886,0.3045,0.3253,0.3402,0.3611,0.3655,0.3727,0.3872,0.3773,0.3783,0.3689,0.3595,0.3577,0.3512,0.4052,0.4054,0.4056,0,0.2471,0.2467,0.2478,0.2489,0.2509,0.2541,0.2572,0.2649,0.2694,0.2861,0.2908,0.3133,0.3291,0.3641,0.3785,0.401,0.3831,0.4034,0.3879,0.3715,0.3631,0.3461,0.3393,0.3869,0.3869,0.3869,0.387,0,0.2439,0.2433,0.243,0.2446,0.2473,0.2498,0.2547,0.2576,0.2686,0.2769,0.2923,0.3073,0.342,0.3625,0.392,0.4019,0.3822,0.4045,0.388,0.3509,0.3317,0.3257,0.369,0.3872,0.3871,0.3871,0.3871,0.3871,0.2414,0.2408,0.2391,0.2422,0.2436,0.2447,0.2456,0.2524,0.2588,0.2697,0.2879,0.3062,0.339,0.379,0.3874,0.3896,0.3857,0.3817,0.374,0.3602,0.344,0.3913,0.4097,0.4098,0.4099,0.41,0.4101,0,0.2368,0.2373,0.2383,0.2385,0.2366,0.2394,0.2432,0.2436,0.2491,0.2626,0.2757,0.3028,0.3289,0.3501,0.3659,0.358,0.3445,0.3495,0.3185,0.3155,0.3598,0.3483,0.3531,0.3531,0.3531,0.3531,0.3532,0.3532,0.2351,0.234,0.2354,0.2319,0.2309,0.228,0.2287,0.2303,0.2371,0.2455,0.2554,0.2712,0.2987,0.319,0.318,0.3156,0.2906,0.2865,0.283,0.3056,0.3076,0.3095,0.2961,0.2899,0.2898,0.2303,0.2298,0.2294]},{"header":{"parameterUnit":"m.s-1","parameterCategory":2,"la1":30.2991,"la2":30.254,"lo1":-89.0895,"lo2":-89.0444,"dy":0.0017,"dx":0.0017,"nx":28,"ny":28,"refTime":"2025-07-17T09:00:00:Z","depth":"0","parameterNumber":3,"parameterNumberName":"V-component_of_CURRENTS"},"data":[0,0,0,0,0,0,0,0,0,0,0,0,0,0,0,0,0,0,0,0,0,0,0,0,0,0,0,0,0,0,0,0,0,0,0,0,0,0,0,0,0,0,0,0,0,0,0,0,0,0,0,0,0,0,0,0,0,0,0.0296,0.0295,0,0.0225,0.0224,0.0224,0.019,0.0189,0.0189,0.0189,0.0113,0.0111,0.0109,0,0,0,0,0,0,0,0,0,0,0,0,0,0.0374,0.0374,0.0296,0.0295,0.0294,0.0225,0.0224,0.0224,0.019,0.0189,0.0189,0.0189,0.0114,0.0111,0.0109,0,0,0,0,0,0,0,0,0,0,0,0,0,0.0328,0.0373,0.0297,0.0267,0.0264,0.0225,0.0224,0.0223,0.019,0.0189,0.0189,0.0189,0.0114,0.0112,0.0109,0.0096,0,0,0.01,0.0099,0,0,0,0,0,0,0,0,0.033,0.0325,0.0273,0.0269,0.0265,0.0214,0.0224,0.018,0.019,0.022,0.0189,0.0189,0.0145,0.014,0.013,0.0093,0.0089,0.01,0.0098,0.0097,0.0096,0,0,0,0,0,0,0,0.0334,0.0328,0.027,0.0272,0.0267,0.0248,0.0242,0.0215,0.0186,0.0217,0.0214,0.0203,0.0143,0.0133,0.0128,0.0088,0.01,0.0097,0.0096,0.0095,0.004,0.0041,0,0,0,0,0,0,0.034,0.0331,0.0272,0.0268,0.0296,0.0247,0.024,0.0233,0.0187,0.0179,0.0203,0.0202,0.0138,0.0131,0.0125,0.0133,0.0097,0.0094,0.0093,0.004,0.0041,0.0041,0,0,0,0,0,0,0.0342,0.0336,0.0275,0.0296,0.0287,0.0246,0.0238,0.0231,0.0217,0.0176,0.0168,0.0195,0.0137,0.0129,0.0105,0.0128,0.0093,0.0091,0.004,0.004,0.0041,0.0132,0,0,0,0,0,0,0.0345,0.0337,0.0334,0.0297,0.0286,0.0262,0.0238,0.023,0.021,0.0207,0.0166,0.0159,0.0136,0.011,0.0103,0.0124,0.0088,0.004,0.004,0.0041,0.0128,0.0135,0.0141,0,0,0,0,0,0.0348,0.0344,0.0335,0.0327,0.0283,0.0262,0.0256,0.0226,0.021,0.0211,0.0181,0.016,0.0108,0.0108,0.0099,0.012,0.0039,0.004,0.0041,0.0126,0.0134,0.0141,0,0,0,0,0,0,0.038,0.0339,0.0328,0.0313,0.0294,0.0256,0.0245,0.0227,0.0204,0.0198,0.016,0.0152,0.0141,0.0111,0.0112,0.0104,0.0071,0.007,0.0139,0.0146,0.0152,0.0191,0.0086,0,0,0,0,0,0.0385,0.0373,0.0337,0.033,0.0316,0.0281,0.0267,0.0252,0.0224,0.0213,0.0188,0.0157,0.0137,0.0126,0.0102,0.0094,0.0078,0.0101,0.0107,0.0113,0.0137,0.0111,0.0118,0.0043,0.0043,0.0043,0,0,0.0398,0.0372,0.0367,0.0336,0.0313,0.0314,0.0273,0.0255,0.0264,0.0208,0.0208,0.0177,0.0138,0.0136,0.0128,0.0114,0.0128,0.0114,0.0119,0.0141,0.0112,0.012,0.0127,0.0043,0.0043,0.0043,0,0,0.0421,0.0391,0.039,0.038,0.035,0.0331,0.0329,0.0296,0.0285,0.0276,0.0244,0.0231,0.019,0.0183,0.0169,0.0192,0.016,0.0176,0.0244,0.0218,0.0225,0.023,0.0235,0.024,0.0182,0.0182,0.0182,0,0.0438,0.0435,0.039,0.0395,0.0394,0.0345,0.0362,0.0343,0.0315,0.0317,0.0287,0.0258,0.022,0.0236,0.0244,0.0211,0.0195,0.0222,0.0229,0.0234,0.0238,0.0241,0.0246,0.0186,0.0186,0.0185,0.0185,0,0.0463,0.047,0.0467,0.0461,0.0456,0.0459,0.0433,0.0427,0.0401,0.0393,0.0394,0.035,0.0336,0.0321,0.0289,0.0309,0.029,0.024,0.0218,0.0252,0.0252,0.0256,0.0193,0.0191,0.019,0.0189,0,0,0.0479,0.0486,0.0486,0.0506,0.0494,0.0492,0.0504,0.0505,0.0522,0.0494,0.0522,0.0488,0.0465,0.0448,0.041,0.0397,0.041,0.0339,0.0336,0.036,0.0376,0.0373,0.0376,0.0355,0.0355,0.0356,0.0371,0,0.0515,0.0545,0.0541,0.0586,0.06,0.0581,0.0601,0.06,0.0587,0.0601,0.0566,0.0572,0.0512,0.051,0.0487,0.043,0.042,0.0412,0.0327,0.0325,0.033,0.038,0.0367,0.038,0.0374,0.0374,0.0375,0,0.054,0.0558,0.0605,0.0652,0.0656,0.0681,0.0704,0.072,0.0725,0.0718,0.0721,0.0689,0.0688,0.0612,0.0557,0.0552,0.0477,0.0429,0.0427,0.0399,0.0329,0.0338,0.0385,0.0251,0.0379,0.0379,0.0379,0,0.0558,0.0606,0.0646,0.066,0.0698,0.0722,0.0742,0.0758,0.0778,0.0801,0.0823,0.0803,0.0795,0.0713,0.0615,0.0579,0.0551,0.0475,0.0413,0.0412,0.0375,0.037,0.0295,0.043,0.043,0.043,0.043,0,0.0592,0.0626,0.066,0.0681,0.0738,0.0757,0.0815,0.083,0.0865,0.0913,0.0888,0.0925,0.0814,0.0778,0.0669,0.0578,0.0586,0.0455,0.0421,0.0406,0.0404,0.0262,0.0188,0.043,0.043,0.043,0.043,0,0.0605,0.0627,0.0677,0.0726,0.0748,0.0785,0.0854,0.0899,0.093,0.0993,0.1008,0.1014,0.0983,0.0884,0.0768,0.0654,0.0497,0.0515,0.0531,0.0498,0.0299,0.0231,0.0162,0.0139,0.0453,0.0453,0.0453,0,0.062,0.0647,0.0699,0.0735,0.0761,0.0821,0.0869,0.0918,0.0968,0.1054,0.109,0.1099,0.1123,0.0993,0.0802,0.0651,0.0516,0.0516,0.0434,0.0318,0.0215,0.0174,0.0156,0.0424,0.0424,0.0424,0.0424,0,0.0654,0.0662,0.0695,0.0761,0.0819,0.0883,0.0956,0.1002,0.1071,0.1143,0.1233,0.1274,0.1169,0.1041,0.0842,0.0701,0.0437,0.0507,0.0368,0.0191,0.016,0.011,0.0403,0.0423,0.0423,0.0423,0.0423,0.0423,0.067,0.0697,0.0736,0.0801,0.0871,0.0948,0.101,0.1096,0.1194,0.133,0.1346,0.1456,0.1254,0.0993,0.078,0.0395,0.0417,0.0263,0.0196,0.017,0.013,0.0447,0.0431,0.0431,0.0432,0.0432,0.0432,0,0.0682,0.0717,0.0783,0.0859,0.0941,0.0966,0.1075,0.1154,0.1286,0.1432,0.1535,0.1519,0.1249,0.0929,0.0417,0.0132,0.0041,-0.0012,-0.0098,-0.0096,0.0161,0.0139,0.0082,0.0082,0.0082,0.0082,0.0082,0.0082,0.0684,0.0733,0.0769,0.0902,0.0969,0.1075,0.1141,0.1271,0.1394,0.1588,0.1683,0.1749,0.1504,0.0574,-0.0045,-0.0181,-0.0349,-0.0383,-0.0432,-0.0311,-0.0292,-0.0273,-0.0312,-0.0463,-0.0464,-0.0655,-0.0658,-0.066]}],[{"header":{"parameterUnit":"m.s-1","parameterCategory":2,"la1":30.2991,"la2":30.254,"lo1":-89.0895,"lo2":-89.0444,"dy":0.0017,"dx":0.0017,"nx":28,"ny":28,"refTime":"2025-07-17T09:00:00:Z","depth":"2","parameterNumber":2,"parameterNumberName":"U-component_of_CURRENTS"},"data":[0,0,0,0,0,0,0,0,0,0,0,0,0,0,0,0,0,0,0,0,0,0,0,0,0,0,0,0,0,0,0,0,0,0,0,0,0,0,0,0,0,0,0,0,0,0,0,0,0,0,0,0,0,0,0,0,0,0,0.0913,0.0909,0,0.0891,0.0894,0.0898,0.111,0.1111,0.1113,0.1115,0.1063,0.1061,0.1058,0,0,0,0,0,0,0,0,0,0,0,0,0,0.1195,0.1192,0.0914,0.0909,0.0905,0.089,0.0895,0.0899,0.1109,0.1111,0.1113,0.1115,0.1064,0.1061,0.1057,0,0,0,0,0,0,0,0,0,0,0,0,0,0.1156,0.1191,0.0914,0.0974,0.0976,0.089,0.0895,0.09,0.1109,0.1111,0.1114,0.1116,0.1065,0.1061,0.1057,0.0981,0,0,0.1044,0.1042,0,0,0,0,0,0,0,0,0.1158,0.1152,0.097,0.0969,0.0971,0.0965,0.0972,0.0909,0.1108,0.1107,0.1115,0.1117,0.0996,0.0997,0.1054,0.0978,0.0976,0.1043,0.1041,0.1039,0.1038,0,0,0,0,0,0,0,0.1161,0.1153,0.0952,0.0964,0.0964,0.1017,0.102,0.0966,0.1073,0.1108,0.1111,0.1035,0.1003,0.1058,0.1053,0.0975,0.1043,0.104,0.1037,0.1035,0.1102,0.1106,0,0,0,0,0,0,0.1064,0.1155,0.0951,0.0946,0.1021,0.1007,0.1011,0.1002,0.1074,0.1075,0.1032,0.1044,0.1064,0.1058,0.1051,0.1087,0.1039,0.1035,0.1032,0.1098,0.1103,0.1108,0,0,0,0,0,0,0.1072,0.1049,0.0951,0.101,0.0995,0.0994,0.0985,0.0999,0.1114,0.1009,0.102,0.1132,0.1066,0.1057,0.1057,0.1081,0.1033,0.1029,0.1093,0.11,0.1106,0.1077,0,0,0,0,0,0,0.1082,0.1055,0.1049,0.1005,0.0986,0.0977,0.0978,0.0996,0.1035,0.1054,0.1094,0.109,0.1067,0.1064,0.1053,0.1074,0.1025,0.1087,0.1096,0.1104,0.1072,0.1081,0.1089,0,0,0,0,0,0.1094,0.1046,0.1052,0.1024,0.0971,0.0975,0.0983,0.1016,0.1037,0.113,0.1121,0.1093,0.1112,0.1061,0.1048,0.1068,0.1083,0.1093,0.1103,0.1068,0.108,0.1089,0,0,0,0,0,0,0.1109,0.1056,0.1064,0.099,0.1013,0.0996,0.1009,0.1044,0.1122,0.1118,0.1097,0.1092,0.1131,0.1113,0.1059,0.1134,0.1113,0.112,0.1092,0.1102,0.1111,0.1157,0.1022,0,0,0,0,0,0.1105,0.1055,0.1063,0.0968,0.1022,0.1042,0.1045,0.1073,0.108,0.1128,0.113,0.1139,0.1153,0.1136,0.1161,0.1136,0.1126,0.1171,0.1179,0.1185,0.1228,0.1232,0.1242,0.114,0.114,0.114,0,0,0.1011,0.099,0.0933,0.0966,0.0994,0.1049,0.1072,0.108,0.1085,0.1086,0.1126,0.1168,0.1169,0.1189,0.1203,0.1165,0.1202,0.1198,0.1202,0.1242,0.1243,0.1252,0.126,0.1147,0.1146,0.1145,0,0,0.0839,0.0887,0.0851,0.0902,0.0933,0.1017,0.1043,0.1104,0.1148,0.1161,0.1184,0.1241,0.1237,0.1254,0.1251,0.132,0.1273,0.1354,0.1379,0.138,0.1386,0.1392,0.1329,0.1329,0.1322,0.1322,0.1322,0,0.079,0.0743,0.0832,0.085,0.0887,0.1025,0.1075,0.1112,0.1134,0.1145,0.118,0.1282,0.127,0.1297,0.1348,0.1329,0.1317,0.1307,0.1381,0.1388,0.1394,0.1329,0.1329,0.1322,0.1322,0.1322,0.1322,0,0.0642,0.0626,0.0621,0.0738,0.0825,0.0869,0.0972,0.1075,0.1162,0.1151,0.1246,0.1291,0.138,0.1377,0.1369,0.1434,0.1404,0.1402,0.1326,0.14,0.1329,0.133,0.1322,0.1322,0.1322,0.1322,0,0,0.0547,0.0548,0.0562,0.059,0.0803,0.0851,0.0954,0.1096,0.11,0.1202,0.1225,0.1329,0.1422,0.1443,0.1479,0.1463,0.1461,0.1462,0.1462,0.1351,0.1429,0.1444,0.1445,0.1465,0.1467,0.1469,0.1334,0,0.0486,0.0494,0.0537,0.057,0.0653,0.0839,0.0891,0.0981,0.1091,0.1129,0.123,0.1273,0.1413,0.1474,0.1517,0.1529,0.1478,0.1496,0.1423,0.142,0.1384,0.1454,0.1333,0.1211,0.1335,0.1335,0.1335,0,0.0442,0.0452,0.0523,0.0533,0.0597,0.0664,0.0912,0.0926,0.1013,0.1083,0.1251,0.1294,0.1445,0.1475,0.1602,0.1623,0.155,0.1496,0.1489,0.1532,0.1442,0.118,0.1208,0.1337,0.1337,0.1337,0.1336,0,0.0459,0.0455,0.0542,0.0561,0.0632,0.0721,0.0819,0.0941,0.0961,0.109,0.1147,0.1322,0.1427,0.1493,0.1566,0.1573,0.157,0.154,0.1443,0.1438,0.1344,0.1331,0.1488,0.1488,0.1489,0.1489,0.149,0,0.0476,0.0485,0.0545,0.0556,0.0639,0.0687,0.0765,0.089,0.0971,0.0989,0.1151,0.1249,0.1438,0.1483,0.1525,0.1577,0.1583,0.1484,0.1437,0.133,0.1318,0.1458,0.1456,0.1484,0.1485,0.1486,0.1487,0,0.0523,0.053,0.0528,0.0582,0.0645,0.0702,0.0796,0.0787,0.0919,0.0999,0.1061,0.1212,0.1349,0.1431,0.1447,0.1509,0.1509,0.1437,0.1293,0.1238,0.1354,0.1353,0.1362,0.1363,0.1363,0.1363,0.1363,0,0.0512,0.0567,0.0614,0.0585,0.0635,0.0713,0.0758,0.086,0.0867,0.0998,0.1022,0.1119,0.1256,0.1341,0.1384,0.142,0.1414,0.1255,0.1273,0.1405,0.1356,0.1355,0.1354,0.1077,0.1074,0.1072,0.1071,0,0.0526,0.0599,0.0591,0.0584,0.0605,0.065,0.072,0.0749,0.0841,0.0937,0.105,0.1138,0.1211,0.1261,0.1273,0.1266,0.1306,0.1219,0.1383,0.1173,0.1138,0.109,0.1097,0.1054,0.1056,0.1057,0.1058,0.1059,0.0474,0.0507,0.0512,0.052,0.0524,0.0598,0.064,0.0684,0.077,0.0921,0.0993,0.1122,0.107,0.1114,0.1135,0.1147,0.1176,0.1116,0.1119,0.1125,0.1163,0.1136,0.1052,0.1053,0.1055,0.1056,0.1057,0,0.0516,0.0542,0.0442,0.0395,0.043,0.0524,0.0604,0.063,0.0762,0.0868,0.1009,0.092,0.0961,0.0976,0.098,0.0996,0.0973,0.097,0.0911,0.0924,0.0937,0.0966,0.0802,0.0802,0.0803,0.0803,0,0,0.0475,0.042,0.0398,0.0363,0.0399,0.0487,0.0575,0.0653,0.0694,0.0778,0.0846,0.0909,0.09,0.0808,0.0789,0.0828,0.0878,0.0809,0.0991,0.0928,0.0942,0.0976,0.1031,0,0,0,0,0]},{"header":{"parameterUnit":"m.s-1","parameterCategory":2,"la1":30.2991,"la2":30.254,"lo1":-89.0895,"lo2":-89.0444,"dy":0.0017,"dx":0.0017,"nx":28,"ny":28,"refTime":"2025-07-17T09:00:00:Z","depth":"2","parameterNumber":3,"parameterNumberName":"V-component_of_CURRENTS"},"data":[0,0,0,0,0,0,0,0,0,0,0,0,0,0,0,0,0,0,0,0,0,0,0,0,0,0,0,0,0,0,0,0,0,0,0,0,0,0,0,0,0,0,0,0,0,0,0,0,0,0,0,0,0,0,0,0,0,0,-0.0209,-0.021,0,-0.0218,-0.0217,-0.0216,-0.0204,-0.0205,-0.0206,-0.0207,-0.0386,-0.039,-0.0394,0,0,0,0,0,0,0,0,0,0,0,0,0,-0.0063,-0.0066,-0.0209,-0.021,-0.0212,-0.0218,-0.0217,-0.0216,-0.0204,-0.0205,-0.0206,-0.0207,-0.0385,-0.039,-0.0395,0,0,0,0,0,0,0,0,0,0,0,0,0,-0.0093,-0.0066,-0.0209,-0.0216,-0.0218,-0.0218,-0.0217,-0.0216,-0.0204,-0.0205,-0.0206,-0.0208,-0.0384,-0.0389,-0.0395,-0.0409,0,0,-0.0414,-0.0417,0,0,0,0,0,0,0,0,-0.0091,-0.0096,-0.0214,-0.0216,-0.0218,-0.0223,-0.0232,-0.0293,-0.0204,-0.0195,-0.0207,-0.0208,-0.0356,-0.0364,-0.0342,-0.0418,-0.0425,-0.0415,-0.0418,-0.0421,-0.0423,0,0,0,0,0,0,0,-0.0089,-0.0095,-0.0199,-0.0216,-0.0218,-0.018,-0.0185,-0.0241,-0.0262,-0.0196,-0.0199,-0.022,-0.0356,-0.0335,-0.0347,-0.0428,-0.0414,-0.042,-0.0424,-0.0426,-0.0479,-0.0477,0,0,0,0,0,0,-0.012,-0.0094,-0.0199,-0.0201,-0.0171,-0.0183,-0.0188,-0.0209,-0.0257,-0.0268,-0.0219,-0.022,-0.0324,-0.0339,-0.0353,-0.0391,-0.0421,-0.0426,-0.043,-0.0481,-0.0478,-0.0476,0,0,0,0,0,0,-0.0117,-0.0129,-0.0199,-0.0158,-0.0166,-0.0186,-0.0209,-0.0209,-0.0189,-0.0276,-0.0287,-0.0201,-0.0326,-0.0345,-0.0388,-0.0398,-0.0429,-0.0435,-0.0484,-0.048,-0.0477,-0.0457,0,0,0,0,0,0,-0.0112,-0.0127,-0.0144,-0.016,-0.017,-0.0194,-0.021,-0.0209,-0.0207,-0.0207,-0.0265,-0.0282,-0.0328,-0.0378,-0.0394,-0.0407,-0.0439,-0.0487,-0.0482,-0.0478,-0.0461,-0.0454,-0.0447,0,0,0,0,0,-0.0107,-0.0124,-0.0144,-0.0157,-0.0195,-0.0194,-0.0192,-0.0202,-0.0205,-0.0187,-0.0222,-0.028,-0.0362,-0.0382,-0.0401,-0.0416,-0.0489,-0.0483,-0.0479,-0.0464,-0.0455,-0.0448,0,0,0,0,0,0,-0.007,-0.0127,-0.0148,-0.0184,-0.0191,-0.0197,-0.0195,-0.0194,-0.0198,-0.0211,-0.0268,-0.0287,-0.0325,-0.0355,-0.0375,-0.0407,-0.0428,-0.0427,-0.041,-0.0403,-0.0396,-0.0384,-0.0445,0,0,0,0,0,-0.0074,-0.0117,-0.0138,-0.0177,-0.0172,-0.0177,-0.0178,-0.0185,-0.0201,-0.0201,-0.0242,-0.028,-0.0314,-0.0347,-0.0381,-0.0414,-0.045,-0.0423,-0.0416,-0.0411,-0.0406,-0.0445,-0.0444,-0.0459,-0.046,-0.046,0,0,-0.0089,-0.0121,-0.0153,-0.0174,-0.0178,-0.0165,-0.0176,-0.018,-0.019,-0.0229,-0.0249,-0.0269,-0.0313,-0.0341,-0.036,-0.0376,-0.0425,-0.0405,-0.0401,-0.0399,-0.044,-0.0439,-0.0439,-0.0456,-0.0457,-0.0457,0,0,-0.0114,-0.0143,-0.0167,-0.0169,-0.0185,-0.0167,-0.0165,-0.0162,-0.0176,-0.0199,-0.0219,-0.0237,-0.0296,-0.0318,-0.0342,-0.0316,-0.0386,-0.0316,-0.0293,-0.0332,-0.0332,-0.0333,-0.0393,-0.0399,-0.0318,-0.0318,-0.0318,0,-0.012,-0.0153,-0.0169,-0.0174,-0.0172,-0.0162,-0.0146,-0.0159,-0.0179,-0.0204,-0.0211,-0.0245,-0.0289,-0.0315,-0.0291,-0.0311,-0.0339,-0.0334,-0.0329,-0.033,-0.0331,-0.0392,-0.0399,-0.0317,-0.0317,-0.0317,-0.0317,0,-0.0145,-0.0169,-0.0174,-0.0177,-0.0161,-0.0154,-0.0161,-0.0154,-0.0162,-0.0197,-0.0226,-0.0246,-0.0252,-0.027,-0.0282,-0.0292,-0.0313,-0.0319,-0.0363,-0.0329,-0.0394,-0.0403,-0.0314,-0.0315,-0.0316,-0.0316,0,0,-0.0154,-0.0183,-0.0183,-0.0188,-0.0158,-0.0148,-0.0145,-0.0145,-0.0171,-0.0191,-0.0219,-0.024,-0.0226,-0.0242,-0.0242,-0.028,-0.032,-0.029,-0.0293,-0.0374,-0.0416,-0.0333,-0.0334,-0.0324,-0.0325,-0.0325,-0.0466,0,-0.0154,-0.0159,-0.0166,-0.0157,-0.0139,-0.0126,-0.0125,-0.0144,-0.0169,-0.0202,-0.0236,-0.0264,-0.0227,-0.0216,-0.0232,-0.0273,-0.0335,-0.0281,-0.0413,-0.0418,-0.0368,-0.0338,-0.0331,-0.0445,-0.0474,-0.0476,-0.0477,0,-0.0151,-0.0154,-0.0134,-0.0146,-0.0134,-0.012,-0.0095,-0.0108,-0.0162,-0.0185,-0.0186,-0.0226,-0.0216,-0.0224,-0.0266,-0.0224,-0.0312,-0.038,-0.0387,-0.0319,-0.0347,-0.0476,-0.0459,-0.0491,-0.049,-0.0489,-0.0488,0,-0.0116,-0.0132,-0.0107,-0.0111,-0.0106,-0.0097,-0.0079,-0.0105,-0.0113,-0.0167,-0.0169,-0.0189,-0.0177,-0.0241,-0.0297,-0.029,-0.0405,-0.0423,-0.0462,-0.046,-0.0482,-0.0478,-0.0539,-0.0539,-0.0539,-0.0538,-0.0538,0,-0.0088,-0.0093,-0.01,-0.0096,-0.0065,-0.008,-0.0069,-0.0061,-0.0075,-0.0077,-0.0131,-0.0112,-0.0182,-0.0243,-0.0313,-0.0358,-0.0401,-0.045,-0.0477,-0.0471,-0.0464,-0.0518,-0.0514,-0.0544,-0.0543,-0.0541,-0.0541,0,-0.0046,-0.0065,-0.0057,-0.0056,-0.0047,-0.0024,-0.0008,-0.0017,-0.002,-0.0003,-0.0005,-0.0051,-0.0094,-0.0206,-0.0348,-0.0362,-0.0458,-0.0513,-0.0496,-0.0514,-0.0502,-0.0494,-0.0546,-0.0544,-0.0542,-0.0541,-0.054,0,-0.003,-0.0011,0.0004,0.0014,0.0018,0.0036,0.0056,0.0049,0.0057,0.0057,0.008,-0.0,0.0011,-0.0135,-0.0252,-0.0385,-0.0465,-0.0492,-0.0462,-0.0475,-0.0497,-0.0492,-0.0487,-0.0522,-0.052,-0.0519,-0.0518,0,0.003,0.004,0.005,0.0098,0.011,0.0135,0.0159,0.0186,0.0184,0.0219,0.0266,0.0258,0.0106,-0.0007,-0.0209,-0.0288,-0.0434,-0.0468,-0.0518,-0.0474,-0.0449,-0.0471,-0.0468,-0.0509,-0.051,-0.0511,-0.0511,-0.0512,0.0064,0.0101,0.0135,0.0165,0.0205,0.0267,0.0306,0.0338,0.0412,0.0518,0.0452,0.0451,0.0176,-0.0019,-0.0169,-0.0327,-0.034,-0.0429,-0.0435,-0.0441,-0.0366,-0.0333,-0.0362,-0.0362,-0.0362,-0.0362,-0.0362,0,0.0147,0.0179,0.0206,0.0257,0.0346,0.035,0.041,0.0472,0.0608,0.0626,0.0716,0.0458,0.031,0.0027,-0.0187,-0.0305,-0.0327,-0.0353,-0.0409,-0.0417,-0.0425,-0.035,-0.0343,-0.0343,-0.0343,-0.0343,0,0,0.018,0.0237,0.0246,0.0391,0.0454,0.0579,0.0634,0.0745,0.0754,0.0787,0.0737,0.0712,0.0279,0.01,-0.0114,-0.0231,-0.027,-0.0222,-0.0229,-0.028,-0.0284,-0.0465,-0.0357,0,0,0,0,0]}],[{"header":{"parameterUnit":"m.s-1","parameterCategory":2,"la1":30.2991,"la2":30.254,"lo1":-89.0895,"lo2":-89.0444,"dy":0.0017,"dx":0.0017,"nx":28,"ny":28,"refTime":"2025-07-17T09:00:00:Z","depth":"4","parameterNumber":2,"parameterNumberName":"U-component_of_CURRENTS"},"data":[0,0,0,0,0,0,0,0,0,0,0,0,0,0,0,0,0,0,0,0,0,0,0,0,0,0,0,0,0,0,0,0,0,0,0,0,0,0,0,0,0,0,0,0,0,0,0,0,0,0,0,0,0,0,0,0,0,0,-0.0101,-0.0101,0,-0.0114,-0.0113,-0.0113,-0.0108,-0.0108,-0.0108,-0.0108,-0.0146,-0.0147,-0.0148,0,0,0,0,0,0,0,0,0,0,0,0,0,-0.0072,-0.0072,-0.0101,-0.0101,-0.0102,-0.0114,-0.0113,-0.0113,-0.0108,-0.0108,-0.0108,-0.0108,-0.0146,-0.0147,-0.0149,0,0,0,0,0,0,0,0,0,0,0,0,0,-0.0082,-0.0072,-0.0101,-0.0103,-0.0103,-0.0114,-0.0113,-0.0113,-0.0108,-0.0108,-0.0108,-0.0108,-0.0146,-0.0147,-0.0149,-0.0159,0,0,-0.0154,-0.0154,0,0,0,0,0,0,0,0,-0.0081,-0.0082,-0.0102,-0.0103,-0.0103,-0.0112,-0.0118,-0.0131,-0.0108,-0.0103,-0.0108,-0.0108,-0.0139,-0.0141,-0.0139,-0.0161,-0.0163,-0.0154,-0.0155,-0.0155,-0.0156,0,0,0,0,0,0,0,-0.008,-0.0082,-0.0103,-0.0102,-0.0103,-0.0103,-0.0104,-0.012,-0.0119,-0.0103,-0.0104,-0.011,-0.0139,-0.0137,-0.014,-0.0163,-0.0154,-0.0155,-0.0156,-0.0157,-0.0226,-0.0227,0,0,0,0,0,0,-0.0085,-0.0081,-0.0102,-0.0103,-0.0095,-0.0104,-0.0105,-0.0107,-0.0118,-0.0121,-0.011,-0.011,-0.0135,-0.0138,-0.0141,-0.0188,-0.0155,-0.0157,-0.0158,-0.0226,-0.0227,-0.0228,0,0,0,0,0,0,-0.0084,-0.0087,-0.0102,-0.0095,-0.0098,-0.0105,-0.0106,-0.0107,-0.0113,-0.0124,-0.0126,-0.0117,-0.0135,-0.0139,-0.016,-0.0188,-0.0157,-0.0159,-0.0224,-0.0226,-0.0227,-0.026,0,0,0,0,0,0,-0.0083,-0.0086,-0.0099,-0.0095,-0.0098,-0.0115,-0.0107,-0.0107,-0.0118,-0.0118,-0.0131,-0.0134,-0.0135,-0.0157,-0.0161,-0.019,-0.016,-0.0223,-0.0225,-0.0227,-0.0258,-0.0263,-0.0267,0,0,0,0,0,-0.0082,-0.0097,-0.0099,-0.0102,-0.0111,-0.0116,-0.0117,-0.012,-0.0119,-0.0124,-0.0131,-0.0134,-0.0171,-0.0159,-0.0164,-0.0194,-0.0222,-0.0225,-0.0227,-0.0256,-0.0262,-0.0267,0,0,0,0,0,0,-0.009,-0.0099,-0.01,-0.0117,-0.012,-0.0116,-0.0128,-0.0126,-0.0134,-0.0138,-0.0141,-0.0145,-0.0176,-0.0178,-0.0164,-0.0218,-0.02,-0.0203,-0.0221,-0.0226,-0.023,-0.0226,-0.0161,0,0,0,0,0,-0.0099,-0.0113,-0.0115,-0.013,-0.0131,-0.013,-0.0136,-0.0137,-0.0141,-0.0144,-0.0155,-0.0169,-0.0187,-0.0199,-0.0214,-0.0241,-0.0224,-0.0265,-0.0269,-0.0272,-0.0272,-0.0288,-0.0294,-0.0234,-0.0234,-0.0234,0,0,-0.0104,-0.0114,-0.0121,-0.0133,-0.0134,-0.0139,-0.0133,-0.0144,-0.0154,-0.0149,-0.0171,-0.0185,-0.0197,-0.0227,-0.0242,-0.0233,-0.0273,-0.0275,-0.0278,-0.0276,-0.0291,-0.0296,-0.0301,-0.0236,-0.0235,-0.0235,0,0,-0.0118,-0.0131,-0.0142,-0.0146,-0.0158,-0.0159,-0.0164,-0.0167,-0.0175,-0.0196,-0.0199,-0.0222,-0.025,-0.0262,-0.0272,-0.0308,-0.0295,-0.0324,-0.0345,-0.036,-0.0365,-0.0369,-0.032,-0.032,-0.0327,-0.0327,-0.0327,0,-0.0127,-0.0138,-0.0147,-0.0154,-0.0159,-0.0167,-0.017,-0.0182,-0.0195,-0.0202,-0.0209,-0.0249,-0.0265,-0.0293,-0.0314,-0.0318,-0.0306,-0.0324,-0.0366,-0.037,-0.0373,-0.0322,-0.0321,-0.0329,-0.0328,-0.0328,-0.0328,0,-0.0141,-0.015,-0.0156,-0.0168,-0.0176,-0.0184,-0.0195,-0.0214,-0.0229,-0.0233,-0.0267,-0.0289,-0.031,-0.0329,-0.0338,-0.0378,-0.0351,-0.0368,-0.0351,-0.0381,-0.0325,-0.0323,-0.0331,-0.0331,-0.033,-0.033,0,0,-0.0154,-0.0164,-0.0166,-0.0165,-0.0182,-0.0186,-0.0213,-0.0227,-0.0238,-0.0269,-0.0283,-0.0332,-0.0342,-0.0355,-0.0373,-0.0396,-0.0409,-0.0404,-0.0404,-0.035,-0.0403,-0.0328,-0.0318,-0.0446,-0.0447,-0.0447,-0.0339,0,-0.016,-0.0169,-0.0176,-0.0183,-0.0183,-0.0199,-0.0219,-0.0237,-0.0256,-0.0275,-0.0305,-0.0328,-0.0352,-0.0373,-0.0403,-0.0411,-0.0414,-0.0434,-0.0385,-0.0382,-0.031,-0.0318,-0.045,-0.0338,-0.0338,-0.0338,-0.0337,0,-0.0169,-0.0172,-0.0174,-0.0181,-0.0182,-0.0195,-0.0219,-0.0238,-0.0267,-0.0285,-0.0314,-0.0329,-0.0363,-0.039,-0.0403,-0.0419,-0.0418,-0.0417,-0.0414,-0.0334,-0.0307,-0.0311,-0.0334,-0.0334,-0.0335,-0.0335,-0.0335,0,-0.0164,-0.0172,-0.0172,-0.0173,-0.0184,-0.0197,-0.0215,-0.024,-0.025,-0.0292,-0.0295,-0.0333,-0.0341,-0.0372,-0.0368,-0.0399,-0.036,-0.0394,-0.0308,-0.0299,-0.0383,-0.0381,-0.0404,-0.0404,-0.0404,-0.0405,-0.0405,0,-0.0166,-0.0168,-0.0171,-0.0167,-0.0173,-0.0191,-0.0203,-0.0231,-0.0257,-0.0251,-0.0301,-0.0292,-0.0348,-0.0328,-0.0348,-0.0297,-0.0336,-0.0299,-0.0278,-0.0393,-0.0393,-0.0379,-0.0378,-0.04,-0.0401,-0.0402,-0.0403,0,-0.0166,-0.0165,-0.0157,-0.0162,-0.0166,-0.0173,-0.0192,-0.0199,-0.0231,-0.0228,-0.0241,-0.0253,-0.0229,-0.0236,-0.0244,-0.0237,-0.0219,-0.0192,-0.0253,-0.0239,-0.0148,-0.0149,-0.0089,-0.0085,-0.0083,-0.008,-0.0078,0,-0.0168,-0.0166,-0.0149,-0.0137,-0.014,-0.0152,-0.0158,-0.019,-0.0188,-0.0187,-0.0173,-0.0151,-0.0154,-0.0072,-0.011,-0.0089,-0.0106,-0.0072,-0.0179,-0.0135,-0.0121,-0.0127,-0.0132,-0.0074,-0.0073,-0.0072,-0.0072,0,-0.0169,-0.0161,-0.0147,-0.0122,-0.0115,-0.0106,-0.0115,-0.0103,-0.0123,-0.0145,-0.0095,-0.0076,-0.0023,-0.0021,0.0014,0.0007,-0.0093,-0.0044,-0.0052,-0.0152,-0.0116,-0.0107,-0.0115,-0.0062,-0.0063,-0.0064,-0.0065,0,-0.0167,-0.0152,-0.0128,-0.0107,-0.0088,-0.006,-0.0066,-0.0048,-0.0045,-0.0047,-0.0015,-0.0001,-0.0001,0.0036,0.0058,0.0073,0.0046,0.0028,0.0016,0.0005,-0.0022,0.0033,0.0161,0,0,0,0,0,-0.0166,-0.0145,-0.012,-0.0079,-0.0059,-0.005,-0.0035,-0.0039,-0.0041,0.0007,-0.0007,0.0037,0.0076,0.0085,0.0115,0.0087,0.004,0.0123,0.0011,-0.0009,-0.002,-0.0064,0,0,0,0,0,0,-0.0158,-0.0136,-0.0115,-0.0066,-0.0038,-0.0013,0.0004,0.0005,0.0033,0.0029,0.0052,0.0046,0.008,0.0055,0.0114,0.0116,0.0053,0.0128,0.0129,-0.0002,-0.0012,-0.0021,-0.007,0,0,0,0,0]},{"header":{"parameterUnit":"m.s-1","parameterCategory":2,"la1":30.2991,"la2":30.254,"lo1":-89.0895,"lo2":-89.0444,"dy":0.0017,"dx":0.0017,"nx":28,"ny":28,"refTime":"2025-07-17T09:00:00:Z","depth":"4","parameterNumber":3,"parameterNumberName":"V-component_of_CURRENTS"},"data":[0,0,0,0,0,0,0,0,0,0,0,0,0,0,0,0,0,0,0,0,0,0,0,0,0,0,0,0,0,0,0,0,0,0,0,0,0,0,0,0,0,0,0,0,0,0,0,0,0,0,0,0,0,0,0,0,0,0,0.015,0.015,0,0.0153,0.0153,0.0153,0.0161,0.0161,0.0162,0.0162,0.0134,0.0133,0.0133,0,0,0,0,0,0,0,0,0,0,0,0,0,0.0153,0.0153,0.015,0.015,0.015,0.0153,0.0153,0.0153,0.0161,0.0161,0.0162,0.0162,0.0134,0.0133,0.0132,0,0,0,0,0,0,0,0,0,0,0,0,0,0.0154,0.0153,0.015,0.0154,0.0154,0.0153,0.0153,0.0153,0.0161,0.0161,0.0162,0.0162,0.0135,0.0134,0.0132,0.012,0,0,0.0128,0.0128,0,0,0,0,0,0,0,0,0.0154,0.0154,0.0153,0.0154,0.0154,0.0156,0.0144,0.014,0.0161,0.0159,0.0162,0.0162,0.0138,0.0137,0.0138,0.0119,0.0118,0.0128,0.0127,0.0127,0.0127,0,0,0,0,0,0,0,0.0154,0.0154,0.0151,0.0153,0.0154,0.0156,0.0157,0.0143,0.0147,0.0159,0.016,0.0159,0.0138,0.0139,0.0137,0.0117,0.0128,0.0127,0.0126,0.0126,0.005,0.0049,0,0,0,0,0,0,0.0152,0.0154,0.0151,0.0151,0.0154,0.0156,0.0156,0.0156,0.0148,0.0147,0.0159,0.016,0.0141,0.0139,0.0136,0.0078,0.0127,0.0126,0.0125,0.0051,0.005,0.0049,0,0,0,0,0,0,0.0152,0.0152,0.0151,0.0152,0.0152,0.0156,0.0155,0.0156,0.0152,0.0148,0.0147,0.0154,0.0141,0.0138,0.0125,0.0079,0.0125,0.0124,0.0053,0.0051,0.0049,-0.001,0,0,0,0,0,0,0.0152,0.0152,0.0148,0.0152,0.0152,0.0146,0.0155,0.0156,0.0151,0.0152,0.0143,0.0141,0.0141,0.0127,0.0124,0.0078,0.0123,0.0054,0.0052,0.005,-0.0007,-0.0014,-0.002,0,0,0,0,0,0.0153,0.0147,0.0148,0.0148,0.0148,0.0146,0.0146,0.015,0.0151,0.0147,0.0145,0.0141,0.0109,0.0126,0.0122,0.0075,0.0056,0.0053,0.005,-0.0004,-0.0012,-0.002,0,0,0,0,0,0,0.0143,0.0147,0.0149,0.0144,0.0143,0.0147,0.0143,0.0144,0.014,0.0138,0.0137,0.0134,0.0097,0.0103,0.0121,0.0047,0.0077,0.0073,0.0037,0.0029,0.0022,0.0016,0.0122,0,0,0,0,0,0.014,0.014,0.0141,0.0137,0.0134,0.0137,0.0135,0.0136,0.0134,0.0133,0.0124,0.0109,0.0082,0.0073,0.0055,0.0026,0.0033,-0.001,-0.0017,-0.0022,-0.003,-0.0054,-0.0064,0.0039,0.004,0.004,0,0,0.0135,0.0138,0.0137,0.0135,0.0135,0.012,0.0136,0.013,0.0109,0.0128,0.0096,0.0085,0.007,0.003,0.0013,0.003,-0.0046,-0.0026,-0.0031,-0.0035,-0.0058,-0.0068,-0.0077,0.0038,0.0038,0.0038,0,0,0.0125,0.0127,0.0121,0.0117,0.0113,0.0108,0.0103,0.0098,0.0087,0.0062,0.0058,0.0027,0.0,-0.0026,-0.0042,-0.0094,-0.0083,-0.0105,-0.0143,-0.0167,-0.0175,-0.0183,-0.0176,-0.0183,-0.0105,-0.0105,-0.0105,0,0.0115,0.0111,0.0118,0.0107,0.0097,0.0098,0.008,0.0064,0.0053,0.0035,0.0043,-0.0021,-0.0035,-0.0095,-0.0116,-0.0114,-0.0106,-0.0112,-0.0176,-0.0183,-0.019,-0.0181,-0.0188,-0.0108,-0.0108,-0.0108,-0.0107,0,0.01,0.0091,0.0086,0.0069,0.0058,0.0044,0.0024,0.0,-0.0016,-0.003,-0.0086,-0.0103,-0.014,-0.016,-0.0156,-0.0221,-0.0193,-0.0184,-0.0155,-0.0204,-0.0191,-0.0197,-0.0113,-0.0112,-0.0111,-0.011,0,0,0.0084,0.0076,0.0074,0.0062,0.0037,0.0028,-0.0022,-0.0059,-0.009,-0.0122,-0.0167,-0.0226,-0.0229,-0.0247,-0.0254,-0.0278,-0.0321,-0.0251,-0.0251,-0.0244,-0.0349,-0.0321,-0.0324,-0.0319,-0.0321,-0.0322,-0.0317,0,0.0065,0.0046,0.0042,0.0009,-0.0009,-0.003,-0.0074,-0.0109,-0.0139,-0.0183,-0.0224,-0.0266,-0.0264,-0.0284,-0.0314,-0.0318,-0.0341,-0.0322,-0.0304,-0.0303,-0.0273,-0.0332,-0.0328,-0.0321,-0.0322,-0.0323,-0.0324,0,0.0048,0.0037,0.001,-0.0022,-0.0032,-0.0059,-0.0118,-0.0155,-0.0219,-0.0242,-0.0292,-0.031,-0.0367,-0.0352,-0.0392,-0.0376,-0.0374,-0.0372,-0.0372,-0.0331,-0.0287,-0.0265,-0.0334,-0.0333,-0.0332,-0.0332,-0.0331,0,0.0037,0.0013,-0.0006,-0.0017,-0.0058,-0.0085,-0.0119,-0.0176,-0.0209,-0.0279,-0.0301,-0.0362,-0.0384,-0.0411,-0.0405,-0.0404,-0.0426,-0.0422,-0.0395,-0.0391,-0.0388,-0.038,-0.046,-0.046,-0.046,-0.046,-0.046,0,0.0017,-0.0002,-0.0011,-0.0026,-0.0064,-0.0091,-0.0144,-0.0185,-0.0243,-0.0273,-0.0327,-0.035,-0.0399,-0.0411,-0.0418,-0.0415,-0.0437,-0.0416,-0.0402,-0.041,-0.0405,-0.0391,-0.0383,-0.046,-0.046,-0.046,-0.046,0,-0.0002,-0.0002,-0.0027,-0.0058,-0.007,-0.01,-0.0154,-0.019,-0.0237,-0.0279,-0.0303,-0.0345,-0.0358,-0.0384,-0.0408,-0.0415,-0.0425,-0.0416,-0.0404,-0.0386,-0.0371,-0.0366,-0.0408,-0.0408,-0.0407,-0.0407,-0.0406,0,-0.0018,-0.0027,-0.0044,-0.0055,-0.0072,-0.0114,-0.0148,-0.0196,-0.0219,-0.0261,-0.0273,-0.0301,-0.0324,-0.0334,-0.0364,-0.0388,-0.0387,-0.0395,-0.0419,-0.0391,-0.0373,-0.0369,-0.0365,-0.0405,-0.0405,-0.0405,-0.0405,0,-0.0056,-0.005,-0.0068,-0.0084,-0.0105,-0.013,-0.0168,-0.0181,-0.0221,-0.0247,-0.0252,-0.0278,-0.0284,-0.0313,-0.0325,-0.0342,-0.0402,-0.0389,-0.0391,-0.0414,-0.0388,-0.0369,-0.0366,-0.0403,-0.0403,-0.0403,-0.0403,0,-0.0087,-0.0099,-0.0106,-0.0119,-0.0134,-0.0143,-0.0164,-0.0181,-0.0204,-0.023,-0.0217,-0.0244,-0.0257,-0.0285,-0.0295,-0.0315,-0.0331,-0.035,-0.0354,-0.0357,-0.0348,-0.0307,-0.03,0,0,0,0,0,-0.0121,-0.0129,-0.0143,-0.0149,-0.0155,-0.0156,-0.0175,-0.0188,-0.0199,-0.0196,-0.021,-0.0214,-0.0244,-0.0257,-0.0273,-0.0294,-0.034,-0.0315,-0.0365,-0.0391,-0.0394,-0.0391,0,0,0,0,0,0,-0.0147,-0.0162,-0.0152,-0.0161,-0.0161,-0.017,-0.0175,-0.018,-0.0178,-0.0186,-0.0196,-0.0211,-0.0235,-0.0222,-0.0266,-0.0274,-0.031,-0.0329,-0.033,-0.039,-0.0392,-0.0394,-0.0392,0,0,0,0,0]}]]